Somerville, NJ

11:05 AM EDT on July 28, 2017 (GMT -0400)
Somerset

Weather History for KSMQ - May, 2013

Change the Weather History Date:

Thursday, May 9, 2013

  Actual Average Record
Temperature  
Mean Temperature 61 °F -  
Max Temperature 70 °F 68 °F 91 °F (1936)
Min Temperature 53 °F 42 °F 30 °F (1956)
Degree Days  
Heating Degree Days 4    
Growing Degree Days 11 (Base 50)    
Moisture  
Dew Point 55 °F    
Average Humidity 88    
Maximum Humidity 100    
Minimum Humidity 54    
Precipitation  
Precipitation 0.27 in - - ()
Sea Level Pressure  
Sea Level Pressure 29.93 in    
Wind  
Wind Speed 1 mph (NNW)    
Max Wind Speed 8 mph    
Max Gust Speed -    
Visibility 6 miles    
Events Rain    
Averages and records for this station are not official NWS values.
T = Trace of Precipitation, MM = Missing Value Source: NWS Daily Summary

Daily Weather History Graph

Daily Weather History Graph

Search for Another Location

Airport or City:

Trip Planner

Search our weather history database for the weather conditions in past years. The results will help you decide how hot, cold, wet, or windy it might be!

Date:

Astronomy

May. 09, 2013 Rise Set
Actual Time 5:47 AM EDT 8:03 PM EDT
Civil Twilight 5:17 AM EDT 8:33 PM EDT
Nautical Twilight 4:39 AM EDT 9:11 PM EDT
Astronomical Twilight 3:58 AM EDT 9:52 PM EDT
Moon 5:30 AM EDT (5/9) 7:55 PM EDT (5/9)
Length of Visible Light 15h 16m
Length of Day
14h 15m
Waning Crescent, 0% of the Moon is Illuminated
May 9
Waning Crescent
May 9
New
May 18
First Quarter
May 25
Full
May 31
Last Quarter

Hourly Weather History & Observations

Time (EDT) Temp. Dew Point Humidity Pressure Visibility Wind Dir Wind Speed Gust Speed Precip Events Conditions
12:20 AM 53.6 °F 51.8 °F 94% 29.98 in 0.8 mi Calm Calm - N/A   Clear
12:28 AM 53.6 °F 51.8 °F 94% 29.98 in 2.0 mi Calm Calm - N/A   Clear
12:35 AM 53.6 °F 51.8 °F 94% 29.97 in 9.0 mi Calm Calm - N/A   Clear
12:53 AM 53.1 °F 52.0 °F 96% 29.97 in 10.0 mi NW 3.5 mph - N/A   Partly Cloudy
1:53 AM 54.0 °F 53.1 °F 97% 29.96 in 10.0 mi Calm Calm - N/A   Overcast
2:53 AM 55.0 °F 53.1 °F 93% 29.94 in 9.0 mi North 4.6 mph - 0.02 in Rain Light Rain
3:53 AM 54.0 °F 53.1 °F 97% 29.93 in 5.0 mi Calm Calm - 0.00 in   Overcast
4:53 AM 55.0 °F 54.0 °F 96% 29.93 in 6.0 mi Calm Calm - N/A   Overcast
5:06 AM 55.4 °F 53.6 °F 94% 29.92 in 6.0 mi Calm Calm - N/A   Overcast
5:53 AM 55.0 °F 54.0 °F 96% 29.93 in 4.0 mi Calm Calm - 0.02 in Rain Rain
6:19 AM 55.4 °F 53.6 °F 94% 29.93 in 2.0 mi Calm Calm - 0.01 in Rain Light Rain
6:30 AM 55.4 °F 53.6 °F 94% 29.94 in 3.0 mi Calm Calm - 0.01 in   Overcast
6:37 AM 55.4 °F 55.4 °F 100% 29.94 in 2.5 mi Calm Calm - 0.01 in Rain Light Rain
6:53 AM 55.9 °F 54.0 °F 93% 29.93 in 2.5 mi NNW 3.5 mph - 0.01 in Rain Light Rain
7:28 AM 55.4 °F 55.4 °F 100% 29.93 in 1.2 mi NNW 3.5 mph - 0.07 in Rain Heavy Rain
7:53 AM 55.9 °F 55.0 °F 97% 29.94 in 1.8 mi Calm Calm - 0.12 in Rain Rain
8:25 AM 55.4 °F 55.4 °F 100% 29.94 in 2.0 mi Calm Calm - 0.08 in Rain Light Rain
8:35 AM 55.4 °F 55.4 °F 100% 29.94 in 2.5 mi Calm Calm - 0.09 in Rain Light Rain
8:43 AM 57.2 °F 55.4 °F 94% 29.94 in 4.0 mi Calm Calm - 0.09 in Rain Light Rain
8:53 AM 57.0 °F 55.9 °F 96% 29.94 in 5.0 mi Calm Calm - 0.09 in   Overcast
9:02 AM 57.2 °F 55.4 °F 94% 29.94 in 5.0 mi Calm Calm - 0.00 in Rain Light Rain
9:42 AM 59.0 °F 55.4 °F 88% 29.93 in 8.0 mi Calm Calm - 0.00 in Rain Light Rain
9:53 AM 59.0 °F 57.0 °F 93% 29.94 in 8.0 mi Calm Calm - 0.00 in   Overcast
10:13 AM 60.8 °F 55.4 °F 82% 29.93 in 9.0 mi NNW 3.5 mph - 0.00 in Rain Light Rain
10:37 AM 60.8 °F 57.2 °F 88% 29.93 in 10.0 mi Calm Calm - 0.00 in   Overcast
10:53 AM 61.0 °F 57.0 °F 87% 29.94 in 10.0 mi Calm Calm - 0.00 in   Overcast
11:18 AM 62.6 °F 55.4 °F 77% 29.94 in 10.0 mi NNW 3.5 mph - N/A   Mostly Cloudy
11:53 AM 64.9 °F 55.9 °F 73% 29.94 in 10.0 mi Variable 3.5 mph - N/A   Overcast
12:03 PM 64.4 °F 55.4 °F 73% 29.93 in 10.0 mi NNW 8.1 mph - N/A   Overcast
12:17 PM 64.4 °F 55.4 °F 73% 29.92 in 10.0 mi NNE 6.9 mph - N/A   Mostly Cloudy
12:25 PM 66.2 °F 55.4 °F 68% 29.92 in 10.0 mi North 6.9 mph - N/A   Mostly Cloudy
12:33 PM 64.4 °F 53.6 °F 68% 29.92 in 10.0 mi NNW 3.5 mph - N/A   Mostly Cloudy
12:53 PM 66.9 °F 55.9 °F 68% 29.92 in 10.0 mi Calm Calm - 0.01 in   Scattered Clouds
1:53 PM 68.0 °F 54.0 °F 61% 29.90 in 10.0 mi NW 4.6 mph - N/A   Mostly Cloudy
2:53 PM 69.1 °F 52.0 °F 54% 29.89 in 10.0 mi Variable 3.5 mph - N/A   Overcast
3:53 PM 66.9 °F 57.9 °F 73% 29.89 in 10.0 mi South 3.5 mph - 0.00 in   Overcast
4:53 PM 68.0 °F 54.0 °F 61% 29.89 in 10.0 mi Variable 3.5 mph - N/A   Overcast
5:53 PM 68.0 °F 55.0 °F 63% 29.89 in 10.0 mi Calm Calm - N/A   Overcast
6:53 PM 68.0 °F 55.0 °F 63% 29.88 in 10.0 mi Calm Calm - N/A   Mostly Cloudy
7:53 PM 62.1 °F 55.9 °F 80% 29.91 in 10.0 mi Calm Calm - N/A   Clear
8:53 PM 61.0 °F 57.0 °F 87% 29.93 in 10.0 mi Calm Calm - N/A   Overcast
9:53 PM 57.9 °F 57.0 °F 97% 29.94 in 7.0 mi Calm Calm - 0.00 in   Partly Cloudy
10:39 PM 55.4 °F 55.4 °F 100% 29.94 in 0.8 mi Calm Calm - N/A   Clear
10:53 PM 55.9 °F 55.0 °F 97% 29.94 in 2.0 mi Calm Calm - N/A   Clear
11:00 PM 55.4 °F 55.4 °F 100% 29.94 in 5.0 mi Calm Calm - N/A   Clear
11:37 PM 53.6 °F 53.6 °F 100% 29.94 in 2.5 mi Calm Calm - N/A   Partly Cloudy
11:41 PM 53.6 °F 53.6 °F 100% 29.94 in 1.0 mi Calm Calm - N/A   Mist
11:53 PM 54.0 °F 53.1 °F 97% 29.95 in 0.8 mi Calm Calm - N/A   Mist
11:55 PM 53.6 °F 53.6 °F 100% 29.94 in 1.2 mi Calm Calm - N/A   Scattered Clouds
11:57 PM 53.6 °F 53.6 °F 100% 29.94 in 0.8 mi Calm Calm - N/A   Mist